[[{"header":{"parameterUnit":"m.s-1","parameterCategory":1,"la1":30.2991,"la2":30.254,"lo1":-89.0895,"lo2":-89.0444,"dy":0.0017,"dx":0.0017,"nx":28,"ny":28,"refTime":"2025-05-17T03:00:00:Z","depth":0,"parameterNumber":2,"parameterNumberName":"U-component_of_WINDS"},"data":[0,0,0,0,0,0,0,0,0,0,0,0,0,0,0,0,0,0,0,0,0,0,0,0,0,0,0,0,0,0,0,0,0,0,0,0,0,0,0,0,0,0,0,0,0,0,0,0,0,0,0,0,0,0,0,0,0,0,1.5413,1.5414,0,1.552,1.5521,1.5522,1.5555,1.5554,1.5554,1.5553,1.5664,1.5667,1.5671,0,0,0,0,0,0,0,0,0,0,0,0,0,1.5236,1.5239,1.5412,1.5414,1.5415,1.552,1.5521,1.5523,1.5555,1.5554,1.5554,1.5553,1.5663,1.5667,1.5671,0,0,0,0,0,0,0,0,0,0,0,0,0,1.5325,1.524,1.5412,1.5444,1.5448,1.5519,1.5521,1.5523,1.5555,1.5554,1.5553,1.5553,1.5662,1.5667,1.5672,1.572,0,0,1.5688,1.569,0,0,0,0,0,0,0,0,1.532,1.5331,1.5438,1.5442,1.5446,1.5523,1.55,1.5589,1.5555,1.5514,1.5553,1.5552,1.5618,1.5627,1.5649,1.5725,1.573,1.5688,1.5691,1.5693,1.5695,0,0,0,0,0,0,0,1.5314,1.5327,1.5455,1.5439,1.5444,1.5453,1.5465,1.5517,1.5569,1.5518,1.552,1.5533,1.562,1.5643,1.5651,1.5732,1.5688,1.5692,1.5696,1.5698,1.5854,1.5855,0,0,0,0,0,0,1.5302,1.5322,1.5452,1.5458,1.538,1.5457,1.547,1.5499,1.5569,1.5579,1.5533,1.5534,1.5635,1.5645,1.5655,1.5717,1.5693,1.5698,1.5701,1.5853,1.5854,1.5856,0,0,0,0,0,0,1.5298,1.5313,1.5447,1.5391,1.5408,1.5461,1.5493,1.5502,1.5525,1.5581,1.559,1.5547,1.5635,1.5648,1.5704,1.5721,1.5701,1.5705,1.5852,1.5854,1.5855,1.584,0,0,0,0,0,0,1.5293,1.5312,1.533,1.5391,1.5411,1.5493,1.5495,1.5505,1.5534,1.5536,1.5596,1.5606,1.5635,1.5696,1.5709,1.5728,1.5709,1.5851,1.5853,1.5854,1.5839,1.5841,1.5842,0,0,0,0,0,1.5287,1.5322,1.5331,1.5347,1.5436,1.5494,1.5506,1.5539,1.5535,1.5555,1.559,1.5604,1.5717,1.5701,1.5716,1.5737,1.585,1.5852,1.5854,1.5839,1.5841,1.5842,0,0,0,0,0,0,1.5262,1.5331,1.5341,1.5397,1.544,1.55,1.5525,1.554,1.5585,1.5584,1.5624,1.5637,1.569,1.5719,1.57,1.5788,1.5784,1.5789,1.5767,1.5769,1.5771,1.5763,1.5714,0,0,0,0,0,1.5263,1.5305,1.5363,1.5407,1.5427,1.5472,1.5499,1.5521,1.5567,1.5585,1.5624,1.5668,1.5714,1.5743,1.5788,1.5844,1.5858,1.5866,1.5867,1.5868,1.5872,1.5904,1.5908,1.5863,1.5863,1.5863,0,0,1.5266,1.5309,1.5333,1.5403,1.5438,1.5481,1.5487,1.5532,1.5564,1.5592,1.5647,1.5677,1.5729,1.5785,1.5811,1.5811,1.5888,1.5871,1.5871,1.5875,1.5907,1.5911,1.5915,1.5865,1.5865,1.5864,0,0,1.5293,1.5329,1.537,1.5405,1.5459,1.5489,1.5499,1.5557,1.5578,1.5634,1.5655,1.5694,1.5772,1.5808,1.5837,1.5878,1.5892,1.5891,1.5899,1.593,1.5934,1.5937,1.5952,1.5957,1.5895,1.5895,1.5895,0,1.529,1.5355,1.5389,1.5433,1.5463,1.549,1.5532,1.5565,1.563,1.5651,1.5649,1.5747,1.5784,1.5849,1.5859,1.5881,1.5894,1.5884,1.593,1.5934,1.5938,1.5952,1.5958,1.5895,1.5895,1.5895,1.5895,0,1.5348,1.5393,1.5419,1.5482,1.5515,1.5558,1.5599,1.5629,1.5648,1.5678,1.5735,1.578,1.5834,1.5851,1.587,1.5919,1.5917,1.5922,1.5919,1.5941,1.5955,1.5961,1.5894,1.5894,1.5895,1.5895,0,0,1.5362,1.5444,1.5453,1.5482,1.5543,1.5578,1.5622,1.5676,1.5701,1.5745,1.5783,1.5848,1.5854,1.5886,1.591,1.5936,1.5966,1.5939,1.594,1.5942,1.6023,1.6019,1.6024,1.5976,1.5977,1.5978,1.6019,0,1.5397,1.5476,1.5509,1.5573,1.5615,1.5641,1.568,1.5722,1.5751,1.5791,1.5824,1.587,1.5873,1.5893,1.5921,1.5957,1.5983,1.5954,1.6012,1.6014,1.5998,1.6032,1.6027,1.6063,1.6025,1.6026,1.6026,0,1.5448,1.5493,1.5561,1.5618,1.5637,1.567,1.5722,1.576,1.5809,1.5828,1.5864,1.5886,1.5934,1.5928,1.5994,1.5974,1.5999,1.6021,1.6023,1.6029,1.6021,1.6039,1.6076,1.6081,1.6035,1.6035,1.6034,0,1.5451,1.5529,1.558,1.5604,1.5671,1.5694,1.5724,1.5771,1.5801,1.5847,1.5867,1.5917,1.5945,1.5983,1.6019,1.6011,1.6082,1.6078,1.61,1.6099,1.6113,1.6112,1.6154,1.613,1.613,1.6129,1.6129,0,1.5486,1.5527,1.5582,1.5614,1.566,1.5698,1.5743,1.5774,1.5816,1.5854,1.588,1.5916,1.596,1.6001,1.6029,1.608,1.6092,1.611,1.6116,1.6107,1.6105,1.6125,1.6123,1.6131,1.6131,1.613,1.613,0,1.5498,1.5536,1.5594,1.5653,1.5669,1.5701,1.5752,1.5783,1.5814,1.5862,1.5876,1.5924,1.5974,1.6013,1.6078,1.6097,1.615,1.6158,1.6134,1.6137,1.6157,1.6154,1.6213,1.6222,1.6191,1.6192,1.6192,0,1.5517,1.555,1.5612,1.564,1.5669,1.5713,1.5744,1.5782,1.5813,1.5871,1.5896,1.5947,1.599,1.6069,1.611,1.616,1.6169,1.6186,1.6177,1.6167,1.6169,1.6167,1.6171,1.6187,1.6187,1.6187,1.6187,0,1.5548,1.5566,1.561,1.566,1.5697,1.5738,1.578,1.5801,1.5847,1.5881,1.5932,1.5966,1.6032,1.6083,1.6138,1.6168,1.6186,1.619,1.6198,1.6189,1.6173,1.6182,1.6137,1.6189,1.6188,1.6188,1.6188,1.6188,1.5565,1.5595,1.5644,1.5692,1.5727,1.5766,1.5799,1.5834,1.5878,1.5934,1.5955,1.6007,1.6056,1.613,1.6161,1.6203,1.6204,1.6215,1.6218,1.622,1.6219,1.6167,1.6213,1.6213,1.6213,1.6213,1.6213,0,1.5597,1.563,1.5674,1.5732,1.577,1.5783,1.5831,1.5861,1.5908,1.5951,1.5993,1.6052,1.6102,1.6147,1.6199,1.6224,1.6234,1.6237,1.6235,1.6242,1.6215,1.6203,1.6228,1.6228,1.6228,1.6228,1.6228,1.6228,1.5618,1.567,1.5693,1.5763,1.5796,1.5848,1.5874,1.591,1.5945,1.601,1.6051,1.608,1.6125,1.618,1.6227,1.6239,1.6257,1.6258,1.6272,1.6246,1.6244,1.6242,1.6231,1.6261,1.6261,1.6295,1.6295,1.6296]},{"header":{"parameterUnit":"m.s-1","parameterCategory":1,"la1":30.2991,"la2":30.254,"lo1":-89.0895,"lo2":-89.0444,"dy":0.0017,"dx":0.0017,"nx":28,"ny":28,"refTime":"2025-05-17T03:00:00:Z","depth":0,"parameterNumber":3,"parameterNumberName":"V-component_of_WINDS"},"data":[0,0,0,0,0,0,0,0,0,0,0,0,0,0,0,0,0,0,0,0,0,0,0,0,0,0,0,0,0,0,0,0,0,0,0,0,0,0,0,0,0,0,0,0,0,0,0,0,0,0,0,0,0,0,0,0,0,0,4.3119,4.3119,0,4.3146,4.3147,4.3147,4.3128,4.3127,4.3126,4.3126,4.315,4.3151,4.3152,0,0,0,0,0,0,0,0,0,0,0,0,0,4.3046,4.3048,4.3119,4.3119,4.312,4.3146,4.3147,4.3147,4.3128,4.3127,4.3126,4.3125,4.3149,4.3151,4.3153,0,0,0,0,0,0,0,0,0,0,0,0,0,4.3076,4.3048,4.3119,4.3113,4.3113,4.3146,4.3147,4.3147,4.3128,4.3127,4.3126,4.3125,4.3149,4.3151,4.3153,4.3191,0,0,4.3159,4.316,0,0,0,0,0,0,0,0,4.3075,4.3079,4.3114,4.3114,4.3114,4.3133,4.313,4.3162,4.3129,4.3123,4.3126,4.3124,4.3145,4.3147,4.3155,4.3193,4.3194,4.316,4.3161,4.3162,4.3162,0,0,0,0,0,0,0,4.3073,4.3078,4.313,4.3114,4.3114,4.3109,4.3111,4.3136,4.314,4.3123,4.3122,4.3125,4.3144,4.3153,4.3155,4.3194,4.3159,4.3161,4.3163,4.3164,4.3266,4.3267,0,0,0,0,0,0,4.3071,4.3076,4.3129,4.313,4.3091,4.3111,4.3114,4.3128,4.314,4.3141,4.3126,4.3124,4.315,4.3153,4.3156,4.3203,4.3162,4.3164,4.3165,4.3264,4.3266,4.3268,0,0,0,0,0,0,4.307,4.3076,4.3128,4.3103,4.3109,4.3114,4.3129,4.3129,4.3138,4.3143,4.3143,4.3135,4.3149,4.3153,4.3183,4.3204,4.3165,4.3167,4.3263,4.3265,4.3267,4.3297,0,0,0,0,0,0,4.3068,4.3076,4.3091,4.3104,4.3111,4.3155,4.313,4.313,4.3142,4.3139,4.315,4.3151,4.3148,4.318,4.3185,4.3206,4.3168,4.3261,4.3264,4.3266,4.3294,4.33,4.3305,0,0,0,0,0,4.3065,4.3097,4.3092,4.3099,4.313,4.3157,4.3161,4.3158,4.3143,4.3159,4.3162,4.3151,4.3201,4.3184,4.3189,4.3211,4.326,4.3263,4.3266,4.3292,4.3299,4.3305,0,0,0,0,0,0,4.3085,4.3099,4.3093,4.313,4.3143,4.3153,4.3172,4.3165,4.3181,4.3178,4.3173,4.3175,4.3207,4.3212,4.3193,4.3249,4.3228,4.3232,4.3245,4.3252,4.3257,4.3255,4.317,0,0,0,0,0,4.3095,4.3117,4.3126,4.3158,4.3165,4.3168,4.3179,4.3176,4.3188,4.3193,4.3199,4.321,4.3228,4.324,4.3257,4.3295,4.3297,4.3312,4.3317,4.3322,4.3326,4.3347,4.3354,4.3278,4.3278,4.3278,0,0,4.3113,4.3123,4.3137,4.3162,4.3172,4.3194,4.3172,4.3196,4.3212,4.3196,4.3226,4.323,4.3242,4.3277,4.3292,4.3281,4.3347,4.3326,4.3329,4.3331,4.3351,4.3358,4.3364,4.328,4.328,4.328,0,0,4.3158,4.3167,4.3196,4.3206,4.3221,4.3223,4.323,4.3242,4.3245,4.3275,4.3265,4.3283,4.3314,4.3324,4.3333,4.3383,4.3373,4.3388,4.3416,4.3437,4.3443,4.3448,4.3466,4.3473,4.3392,4.3392,4.3392,0,4.3178,4.3212,4.3211,4.3236,4.3248,4.3237,4.3265,4.3274,4.3294,4.3302,4.329,4.333,4.3337,4.3374,4.3387,4.3394,4.3402,4.3387,4.3442,4.3447,4.3452,4.347,4.3477,4.3394,4.3394,4.3394,4.3393,0,4.3237,4.3261,4.3281,4.3303,4.3317,4.3343,4.3345,4.3359,4.3356,4.3359,4.339,4.3398,4.3417,4.3426,4.3421,4.3462,4.3456,4.3443,4.3421,4.3461,4.3478,4.3485,4.3397,4.3396,4.3395,4.3395,0,0,4.3294,4.3316,4.3324,4.3334,4.3351,4.3368,4.3394,4.3415,4.3427,4.3441,4.3463,4.349,4.348,4.349,4.3486,4.3504,4.3545,4.349,4.349,4.35,4.3592,4.3602,4.361,4.3538,4.354,4.3541,4.3591,0,4.334,4.3388,4.3388,4.3432,4.3454,4.3444,4.3467,4.3479,4.3483,4.3501,4.3505,4.3525,4.3509,4.3515,4.3532,4.3536,4.3563,4.3532,4.3558,4.3559,4.3556,4.3618,4.3628,4.3675,4.3597,4.3598,4.3599,0,4.3401,4.3419,4.3466,4.3481,4.349,4.3511,4.353,4.3548,4.3562,4.3563,4.3576,4.357,4.3596,4.3574,4.3609,4.3589,4.3599,4.3602,4.3604,4.3607,4.3582,4.3623,4.369,4.3698,4.3609,4.3608,4.3608,0,4.3439,4.3475,4.3508,4.3517,4.3535,4.355,4.3558,4.3571,4.3583,4.36,4.3608,4.3627,4.3637,4.3651,4.3651,4.3634,4.3687,4.3664,4.3689,4.3689,4.37,4.37,4.3771,4.3706,4.3706,4.3706,4.3706,0,4.3491,4.352,4.3526,4.3546,4.3579,4.3578,4.3609,4.3616,4.3627,4.3648,4.364,4.3659,4.3657,4.3676,4.3675,4.3705,4.371,4.3711,4.3711,4.3713,4.3713,4.372,4.3717,4.3708,4.3707,4.3707,4.3707,0,4.354,4.3545,4.358,4.3595,4.36,4.3623,4.3635,4.3654,4.3658,4.3684,4.369,4.3695,4.3718,4.3719,4.3743,4.3743,4.378,4.3775,4.3776,4.3776,4.38,4.3798,4.3879,4.389,4.3817,4.3818,4.3819,0,4.3573,4.3596,4.3614,4.3628,4.3638,4.3661,4.3674,4.3675,4.3689,4.3707,4.3724,4.3746,4.3764,4.38,4.3805,4.3824,4.3821,4.3848,4.3823,4.3825,4.3822,4.3821,4.3824,4.3852,4.3853,4.3854,4.3854,0,4.3632,4.3634,4.3655,4.3678,4.3695,4.3712,4.3728,4.374,4.3742,4.3759,4.3783,4.3797,4.3823,4.3845,4.3865,4.3871,4.3863,4.3862,4.3869,4.3871,4.3871,4.3873,4.379,4.386,4.386,4.3859,4.3859,4.3859,4.3674,4.3694,4.3711,4.3736,4.3748,4.3764,4.3783,4.379,4.3811,4.3834,4.3832,4.3859,4.3873,4.3898,4.3906,4.3927,4.3917,4.3927,4.3929,4.3932,4.3935,4.3868,4.393,4.393,4.3929,4.3929,4.3929,0,4.3733,4.3745,4.3767,4.3791,4.381,4.3803,4.3821,4.3837,4.3861,4.3875,4.3894,4.3922,4.3943,4.3951,4.3972,4.3987,4.3984,4.3992,4.3991,4.3993,4.3942,4.3935,4.3994,4.3994,4.3994,4.3994,4.3994,4.3994,4.3767,4.3801,4.3805,4.3846,4.3856,4.3884,4.3895,4.3909,4.3921,4.3953,4.3972,4.3977,4.3989,4.4011,4.4031,4.4032,4.404,4.4051,4.4051,4.4003,4.3997,4.399,4.3983,4.4052,4.4053,4.4101,4.4101,4.4101]}]]